West Lebanon, NH

10:56 PM EDT on August 23, 2016 (GMT -0400)
Lebanon Municipal

Weather History for KLEB - January, 2013

Change the Weather History Date:

Tuesday, January 1, 2013

  Actual Average Record
Temperature  
Mean Temperature 16 °F -  
Max Temperature 34 °F 29 °F 55 °F (1966)
Min Temperature -6 °F 10 °F -16 °F (1964)
Degree Days  
Heating Degree Days 49    
Moisture  
Dew Point 8 °F    
Average Humidity 62    
Maximum Humidity 83    
Minimum Humidity 47    
Precipitation  
Precipitation 0.00 in - - ()
Sea Level Pressure  
Sea Level Pressure 29.83 in    
Wind  
Wind Speed 7 mph (WNW)    
Max Wind Speed 14 mph    
Max Gust Speed 23 mph    
Visibility 10 miles    
Events Snow    
Averages and records for this station are not official NWS values.
T = Trace of Precipitation, MM = Missing Value Source: NWS Daily Summary

Daily Weather History Graph

Daily Weather History Graph

Search for Another Location

Airport or City:

Trip Planner

Search our weather history database for the weather conditions in past years. The results will help you decide how hot, cold, wet, or windy it might be!

Date:

Astronomy

Jan. 01, 2013 Rise Set
Actual Time 7:22 AM EST 4:23 PM EST
Civil Twilight 6:50 AM EST 4:56 PM EST
Nautical Twilight 6:13 AM EST 5:32 PM EST
Astronomical Twilight 5:39 AM EST 6:06 PM EST
Moon 9:00 PM EST (1/1) 9:25 AM EST (1/1)
Length of Visible Light 10h 05m
Length of Day
9h 00m
Waning Gibbous, 83% of the Moon is Illuminated
Jan 1
Waning Gibbous
Jan 4
Last Quarter
Jan 11
New
Jan 18
First Quarter
Jan 26
Full

Hourly Weather History & Observations

Time (EST) Temp. Windchill Dew Point Humidity Pressure Visibility Wind Dir Wind Speed Gust Speed Precip Events Conditions
12:53 AM 33.1 °F 26.9 °F 24.1 °F 70% 29.68 in 8.0 mi SSW 6.9 mph - 0.00 in Snow Light Snow
1:53 AM 33.1 °F 24.9 °F 24.1 °F 70% 29.68 in 10.0 mi SSW 10.4 mph - 0.00 in   Overcast
2:53 AM 33.1 °F 27.7 °F 24.1 °F 70% 29.68 in 10.0 mi SW 5.8 mph - N/A   Overcast
3:53 AM 34.0 °F 26.6 °F 21.9 °F 61% 29.68 in 10.0 mi West 9.2 mph 23.0 mph N/A   Mostly Cloudy
4:53 AM 33.1 °F 24.9 °F 18.0 °F 54% 29.69 in 10.0 mi West 10.4 mph 21.9 mph N/A   Scattered Clouds
7:53 AM 28.0 °F 18.6 °F 19.0 °F 69% 29.78 in 5.0 mi NW 10.4 mph - 0.00 in Snow Light Snow
8:53 AM 25.0 °F 17.1 °F 14.0 °F 63% 29.81 in 10.0 mi North 6.9 mph - 0.00 in   Overcast
9:53 AM 24.1 °F 14.4 °F 10.9 °F 57% 29.84 in 10.0 mi North 9.2 mph - N/A   Overcast
10:53 AM 24.1 °F 13.7 °F 10.9 °F 57% 29.83 in 10.0 mi North 10.4 mph - N/A   Overcast
11:53 AM 24.1 °F 15.2 °F 10.0 °F 55% 29.82 in 10.0 mi NNW 8.1 mph - N/A   Overcast
12:53 PM 24.1 °F 13.7 °F 10.0 °F 55% 29.81 in 10.0 mi NW 10.4 mph - N/A   Overcast
1:53 PM 24.1 °F 15.2 °F 9.0 °F 53% 29.81 in 10.0 mi NW 8.1 mph - N/A   Mostly Cloudy
2:53 PM 23.0 °F 10.6 °F 6.1 °F 48% 29.82 in 10.0 mi NW 13.8 mph 20.7 mph N/A   Partly Cloudy
3:53 PM 21.0 °F - 5.0 °F 50% 29.83 in 10.0 mi Calm Calm - N/A   Clear
4:53 PM 19.0 °F 12.3 °F 3.0 °F 50% 29.86 in 10.0 mi WNW 4.6 mph - N/A   Clear
5:53 PM 17.1 °F 8.7 °F -0.0 °F 47% 29.88 in 10.0 mi NW 5.8 mph - N/A   Clear
6:53 PM 15.1 °F 9.4 °F -0.0 °F 51% 29.91 in 10.0 mi WNW 3.5 mph - N/A   Clear
7:53 PM 3.9 °F - -2.9 °F 73% 29.94 in 10.0 mi Calm Calm - N/A   Clear
8:53 PM 1.9 °F - -4.0 °F 76% 29.94 in 10.0 mi Calm Calm - N/A   Clear
9:53 PM 3.9 °F - -2.9 °F 73% 29.95 in 10.0 mi Calm Calm - N/A   Clear
10:53 PM -2.0 °F - -7.1 °F 79% 29.97 in 10.0 mi Calm Calm - N/A   Clear
11:53 PM -6.0 °F - -9.9 °F 83% 29.97 in 10.0 mi Calm Calm - N/A   Clear